{"data":{"norad_id":63141,"epoch":"2026-09-21T09:28:30.864288Z","epoch_age_seconds":84893,"freshness":"FRESH","line1":"1 63141U 25043K   26264.39480167  .00144973  00000+0  11090-2 0  9997","line2":"2 63141  42.9985 150.8746 0001645 287.9391  72.1297 15.70940845 90077","mean_motion":15.70940845,"eccentricity":0.0001645,"inclination_deg":42.9985,"raan_deg":150.8746,"arg_perigee_deg":287.9391,"mean_anomaly_deg":72.1297,"bstar":0.001109,"rev_number":9007,"period_min":91.664813769611,"perigee_km":355.09904354209,"apogee_km":357.31464266648,"semimajor_km":6734.3438431043,"source":"CELESTRAK","updated_at":"2026-09-22T09:00:49.791737Z"}}